Regional Weather Roundup
Issued by NWS

Home | Current Version | Previous Version | Graphics & Text | Print | Product List | Glossary On
Versions: 1 2 3 4 5 6 7 8 9 10 11 12 13 14 15 16 17 18 19 20 21 22 23 24 25 26 27 28 29 30 31 32 33 34 35 36 37 38 39 40 41 42 43 44 45 46 47 48 49 50
000
ASUS45 KTFX 061210
RWRMT
MONTANA REGIONAL WEATHER ROUNDUP
NATIONAL WEATHER SERVICE GREAT FALLS MT
600 AM MDT MON JUL 06 2015

NOTE: "FAIR" INDICATES FEW OR NO CLOUDS BELOW 12000 FEET WITH NO
SIGNIFICANT WEATHER AND/OR OBSTRUCTIONS TO VISIBILITY.

MTZ001>007-043-061300-
WEST OF THE DIVIDE

CITY           SKY/WX    TMP DP  RH WIND       PRES   REMARKS
KALISPELL      SUNNY     42  38  85 VRB5      30.20S
MISSOULA       CLEAR     51  42  71 N6        30.20R
BUTTE          CLOUDY    52  43  71 CALM      30.27S
MULLAN PASS    CLEAR     47  42  83 SE13G23   30.22S
DEER LODGE       N/A     52  45  76 CALM      30.28S
EUREKA           N/A     45  39  81 CALM      30.21S
HAMILTON         N/A     50  46  87 S2        30.18S
LIBBY            N/A     43  39  87 CALM      30.20R
PLAINS           N/A     47  39  73 CALM      30.17S
RONAN            N/A     43  40  89 CALM      30.20F
THOMPSON FALLS   N/A     55  45  69 SW3       30.19S
$$

MTZ008-052>055-061300-
SOUTHWEST MONTANA

CITY           SKY/WX    TMP DP  RH WIND       PRES   REMARKS
BOZEMAN        CLOUDY    53  49  86 W3        30.26S
DILLON         CLOUDY    51  46  83 NE6       30.25S
W YELLOWSTONE  CLOUDY    48  46  93 E5        30.31S
THREE FORKS      N/A     55  55 100 CALM      30.22F
$$

MTZ009-010-012-014-046-048-049-054-061300-
EAST SLOPES AND CENTRAL MONTANA

CITY           SKY/WX    TMP DP  RH WIND       PRES   REMARKS
CUT BANK       CLEAR     41  40  96 CALM      30.26R
GREAT FALLS    MOCLDY    47  46  97 CALM      30.26S
MALMSTROM AFB  MOCLDY    47  47 100 S5        30.26F
HELENA         CLOUDY    52  47  83 NW5       30.25S
CONRAD           N/A     39  39 100 CALM      30.25R
$$

MTZ011-013-016-021-045-047-050-051-061300-
NORTH CENTRAL MONTANA

CITY           SKY/WX    TMP DP  RH WIND       PRES   REMARKS
HAVRE          CLEAR     48  48 100 MISG      30.24R
LEWISTOWN      CLOUDY    52  48  86 CALM      30.28R
CHINOOK          N/A     48  48 100 CALM      30.24R
FORT BENTON      N/A     48  46  93 CALM      30.27S
$$

MTZ017>020-022>027-061-062-061300-
NORTHEAST MONTANA

CITY           SKY/WX    TMP DP  RH WIND       PRES   REMARKS
GLASGOW        CLEAR     55  51  86 NW6       30.19R
JORDAN           N/A     52  51  97 W5        30.22S
SIDNEY         MOCLDY    57  52  82 W8        30.18S
WOLF POINT     MOCLDY    55  53  93 SW5       30.19S
MALTA            N/A     50  46  85 CALM      30.17R
PLENTYWOOD       N/A     54  52  94 N6        30.19R
POPLAR           N/A     55  54  94 CALM      30.19S
SCOBEY           N/A     51  45  80 CALM      30.17R
$$

MTZ028>42-056>058-061300-
SOUTHCENTRAL AND SOUTHEAST MONTANA

CITY           SKY/WX    TMP DP  RH WIND       PRES   REMARKS
BAKER          CLOUDY    57  55  93 NW8       30.21R
BILLINGS       CLOUDY    55  48  77 E5        30.28S
LIVINGSTON     CLOUDY    53  49  86 E9        30.26S
MILES CITY     CLOUDY    57  55  93 NW5       30.23R
EKALAKA          N/A     55  52  90 NW7       30.18R
FORSYTH          N/A     55  55 100 W5        30.24S
LAUREL           N/A     54  45  71 CALM      30.24R
ROUNDUP          N/A     54  47  77 CALM      30.17R
$$

REGIONAL REPORTS...DAKOTAS

CITY           SKY/WX    TMP DP  RH WIND       PRES   REMARKS
WILLISTON      CLOUDY    57  52  83 N7        30.18R
MINOT          MOCLDY    51  49  92 NW5       30.12R FOG
DICKINSON      CLOUDY    55  52  89 NW6       30.15R
BEACH          CLOUDY    55  55 100 NW9       30.21R
CROSBY         FAIR      54  54 100 NW6       30.18R FOG
BISMARCK       CLOUDY    60  54  80 N7        30.10R
GRAND FORKS    PTSUNNY   55  51  86 N12       30.04R
FARGO          CLOUDY    61  55  81 N17       29.98R HAZE
BUFFALO SD       N/A     58  54  86 NW16      30.11R
RAPID CITY     CLOUDY    59  55  87 N13       30.17R FOG
$$

REGIONAL REPORTS...WYOMING/IDAHO/WASHINGTON

CITY           SKY/WX    TMP DP  RH WIND       PRES   REMARKS
GILLETTE       CLOUDY    53  50  89 N8        30.24R
SHERIDAN       CLOUDY    54  51  90 N6        30.27R FOG
BUFFALO WY     CLOUDY    53  52  96 N6        30.28R FOG
CODY           CLOUDY    50  48  93 NE9       30.29S
YELLOWSTONE LA   N/A     43  42  97 CALM      30.37S
IDAHO FALLS    CLOUDY    59  55  87 N9        30.16R
SALMON         CLEAR     57  48  72 N8        30.15R
BOISE          MOCLDY    69  54  58 SE3       30.01S
SPOKANE        PTCLDY    65  41  41 NE8       30.06R
$$

REGIONAL REPORTS...ALBERTA

CITY           SKY/WX    TMP DP  RH WIND       PRES   REMARKS
EDMONTON       CLEAR     43  36  75 CALM      30.15S
CALGARY        MOCLDY    46  43  87 S6        30.19F
LETHBRIDGE     PTCLDY    43  43 100 S8        30.22S
MEDICINE HAT   CLEAR     45  43  93 S5        30.23S
WATERTON GATE    N/A     39  37  93 SW5         N/A
MILK RIVER       N/A     41  39  93 NW3         N/A
ONEFOUR          N/A     46  45  93 N6          N/A
$$

REGIONAL REPORTS...SASKATCHEWAN

CITY           SKY/WX    TMP DP  RH WIND       PRES   REMARKS
SWIFT CURRENT  CLEAR     48 N/A N/A W3        30.21R HAZE
REGINA         PTCLDY    48  46  93 N5        30.20R
SASKATOON      PTCLDY    43  43 100 W3        30.21R
CYPRESS HILLS    N/A     45  43  93 N2          N/A
VAL MARIE        N/A     48  46  93 NE2         N/A
ROCKGLEN         N/A     50  48  93 N9          N/A
ASSINIBOIA       N/A     45  41  87 SW5         N/A
$$



USA.gov is the U.S. government's official web portal to all federal, state and local government web resources and services.